Asteroid 2009 DB12
(Preview)
Solar System
0
394
Asteroid 2009 DB12 = BO65954 (NEOCPO) Orbital elements: 2009 DB12 Earth MOID = 0.1155 AU Epoch 2008 Nov. 30.0 TT = JDT 2454800.5 MPC M 357.45355 (2000.0) P Q n 0.81609169 Peri. 232.51216 +0.88698851 -0.40599581 a 1.1340793 Node 149.53801 +0.41924428 +0.90774786 e 0.5294810 Incl. 25.72408 -0.193...
Asteroid 2009 DU10
(Preview)
Solar System
0
411
Asteroid 2009 DU10 = 9D17584 (NEOCPO) Orbital elements: 2009 DU10 Earth MOID = 0.0053 AU Epoch 2008 Nov. 30.0 TT = JDT 2454800.5 MPC M 300.90484 (2000.0) P Q n 0.55083789 Peri. 205.18463 -0.99705038 +0.01105330 a 1.4738508 Node 335.09069 +0.03191941 -0.84021653 e 0.3401217 Incl. 10.38868 -0.069...
Asteroid 2009 DS10
(Preview)
Solar System
0
498
Asteroid 2009 DS10 = 9D9DDEC (NEOCPO) Orbital elements: 2009 DS10 PHA, Earth MOID = 0.0361 AU Epoch 2008 Nov. 30.0 TT = JDT 2454800.5 MPC M 347.42859 (2000.0) P Q n 0.35251467 Peri. 123.39557 +0.21054631 -0.97357601 a 1.9846530 Node 314.18210 +0.85097594 +0.22704945 e 0.5400080 Incl. 7.08331 +0....
Asteroid 2009 DG9
(Preview)
Solar System
0
443
Asteroid 2009 DG9 = 9D17193 (NEOCPO) Orbital elements: 2009 DG9 Earth MOID = 0.2864 AU Epoch 2008 Nov. 30.0 TT = JDT 2454800.5 MPC M 335.27311 (2000.0) P Q n 0.20209094 Peri. 50.89530 -0.95223693 +0.21375019 a 2.8758848 Node 140.03905 -0.24641882 -0.95966245 e 0.5880375 Incl. 19.84865 +0.180340...
Asteroid 2009 DQ4
(Preview)
Solar System
0
485
Asteroid 2009 DQ4 = 9D62FBF (NEOCPO) Orbital elements: 2009 DQ4 Earth MOID = 0.1011 AU Epoch 2008 Nov. 30.0 TT = JDT 2454800.5 MPC M 340.32505 (2000.0) P Q n 0.50577992 Peri. 297.98261 -0.23679580 -0.96869148 a 1.5601331 Node 165.13819 +0.96184097 -0.24456784 e 0.3822273 Incl. 16.90799 +0.13707...
Asteroid 2009 DP4
(Preview)
Solar System
0
462
Asteroid 2009 DP4 = 9D15DF4 (NEOCPO) Orbital elements: 2009 DP4 Earth MOID = 0.0779 AU Epoch 2008 Nov. 30.0 TT = JDT 2454800.5 MPC M 342.94936 (2000.0) P Q n 0.47427478 Peri. 119.56132 -0.18351711 -0.97668092 a 1.6284810 Node 340.06560 +0.75028629 -0.06592955 e 0.4296857 Incl. 19.07572 +0.63513...
Asteroid 2009 DO4
(Preview)
Solar System
0
431
Asteroid 2009 DO4 = BO56680 (NEOCPO) Orbital elements: 2009 DO4 Earth MOID = 0.1856 AU Epoch 2008 Nov. 30.0 TT = JDT 2454800.5 MPC M 333.89141 (2000.0) P Q n 0.23460097 Peri. 205.59392 -0.96071092 +0.07841974 a 2.6036515 Node 334.20029 +0.18296844 -0.54236740 e 0.5617954 Incl. 37.71486 -0.20870...
Asteroid 2009 DN4
(Preview)
Solar System
0
463
Asteroid 2009 DN4 = 9D9BED7 (NEOCPO) Orbital elements: 2009 DN4 Earth MOID = 0.0068 AU Epoch 2008 Nov. 30.0 TT = JDT 2454800.5 MPC M 265.44731 (2000.0) P Q n 0.72508665 Peri. 53.28162 -0.90445333 +0.42579593 a 1.2270891 Node 151.89281 -0.40671977 -0.84260297 e 0.2391990 Incl. 3.13065 -0.1286204...
Asteroid 2009 DR3
(Preview)
Solar System
0
429
Asteroid 2009 DR3 = 9D14CD6 (NEOCPO) Orbital elements: 2009 DR3 PHA, Earth MOID = 0.0109 AU Epoch 2008 Nov. 30.0 TT = JDT 2454800.5 MPC M 302.42217 (2000.0) P Q n 0.40600479 Peri. 235.68612 -0.74700494 +0.66461468 a 1.8062670 Node 345.94252 -0.58552829 -0.66943731 e 0.5057284 Incl. 3.88579 -0.31...
Neumayer Station III
(Preview)
General news
0
2882
A new German polar research station was inaugurated on Saturday, 21 February within the framework of International Polar Year. Neumayer Station III is located on the Ekstroem ice shelf in Dronning Maud Land in the Antarctic. Nine people ensure the year-round operation of the station, which serve...
Comet C/2009 B2 (LINEAR)
(Preview)
Solar System
5
539
Comet C/2009 B2 = BO16698 (NEOCPO) Orbital elements: C/2009 B2 (LINEAR) T 2009 Mar. 10.773 TT MPC q 2.32776 (2000.0) P Q Peri. 193.959 -0.990061 -0.061199 Node 18.905 -0.058245 +0.997940 e 1.0 Incl. 156.994 -0.128011 +0.019269 From 27 observations 2009 Jan. 29-31. MPEC 2009 -B91
ODIN
(Preview)
Mission News
1
643
There is no evidence for recovering ozone layer yet, according to the latest results from the Odin satellite.
The Odin satellite is now celebrating five years of observations.
The Swedish orbital observatory Odin confirms large natural variations of ozone depletion processes over the...
Comet P/2001 CV8 (LINEAR)
(Preview)
Solar System
0
411
Comet P/2001 CV8 = 2009 D1 (LINEAR) Periodic comet P/2001 CV8 (LINEAR) was recovered by Jim V. Scotti (Spacewatch II) on the 19th February, 2009. The comet P/2001 CV8 (LINEAR) was discovered by LINEAR on the 1st February, 2001 and had received the designation of asteroid 2001 CV8, before the come...
Bejar meteor
(Preview)
Meteorite News
1
674
Last July, people in Spain, Portugal and France watched the brilliant fireball produced by a boulder crashing down through the Earth's atmosphere. In a paper to be published in the journal Monthly Notices of the Royal Astronomical Society, astronomers Josep M. Trigo-Rodríguez (Institute of Spa...
The hidden order
(Preview)
Physics News
0
826
This quotation is from Professor Peter Oppeneer of Uppsala University. Together with three colleagues, he has explained the hitherto unsolved mystery in materials science known as 'the hidden order' - how a new phase arises and why. This is a discovery that can be of great importance to our underst...
«First < 1
2152 2153 2154 2155 2156
2461 > Last» | Page
